Showing default

DAQI-2, 68760

Orbit data source: Space-Track

DAQI-2, 68760 is a payload satellite owned by CRESDA (CN) in SSO that was launched on Fri, 17 Apr 2026 UTC via a CHANG ZHENG 4C launch vehicle from the Jiuquan Satellite Launch Center, China (JSC). Payload-class satellites include a variety of spacecraft equipped with specific instruments for various scientific and technological missions. These include communications satellites like Starlink; space stations such as the ISS; scientific satellites like the Hubble; Earth observation satellites from companies like Planet Labs, Umbra, and HawkEye 360; GPS; miniature CubeSats for education and research; and military/defense satellites.

Loading next visibility...
Identifier
68760, 2026-084A
Orbit
SSO
Country
Flag of CNCN / PRC
Related business
Manufacturer
CAST
Mission
Operational spacecraft
Bus & Motor
ZY, AOCS 20N
Mass
2,640 kg wet, ~2,300 kg dry
Launch date (UTC)
2026-04-17 (1 month ago)
Launch vehicle
CHANG ZHENG 4C
Launch site
Jiuquan Satellite Launch Center, China (JSC)
Object type
Payload
Rocket body
Debris
Shape & HBR
Unknown shape, 14.5 m
Radar Cross Section
RCS unknown

Expand to show TLE details & history
Last TLE update: 5 hours ago

TLE from 5 hours ago
0 DAQI-2
1 68760U 26084A   26138.85863420  .00000012  00000-0  12802-4 0  9993
2 68760  98.2868 213.1499 0002203 152.1223 208.0094 14.57608565  4624
Epoch: 2026-05-18T20:36Z
TLE epoch observation values (Epoch: 2026-05-18T20:36:25.994Z)
Latitude
-0.00004°
Longitude
27.50074°
Altitude
705.263 km
Speed
7.502 km/s
True Right ascension
14h 12m 35s
True Declination
0° 00' 00"
Sunlit
Object was in full shadow at epoch
Visualization orbit readout
Latitude
Unknown
Longitude
Unknown
Altitude
Unknown
Speed
Unknown
Apparent Right ascension
Unknown
Apparent Declination
Unknown
Sunlit
N/A
Visualization observer readout
Local Sidereal Time
10:14:46
Azimuth
Unknown
Elevation
Unknown
Doppler factor
Unknown
Orbital elements
Apogee altitude
699.554 km
Perigee altitude
696.436 km
Semi-major axis
7,076.132 km
Eccentricity
0.00022
Inclination
98.2868°
RAAN
213.1499°
Arg. of periapsis
152.1223°
True anomaly
207.99755°
Mean anomaly
208.0094°
Eccentric anomaly
208.00347°
Mean motion
3.64627 °/min
Orbital period
98.73 mins
BSTAR
0.000012802
Loading maneuver chart data...
Computing Atmospheric mass density...
Loading historical data...
Loading historical data...
Loading historical data...
Loading historical data...
Loading historical data...
Loading historical data...
Loading historical data...
Other satellites on launch #84 in the year 2026 (2026-04-17 UTC)

Documentation

Showing up to 5 results
|